Weather History for Cincinnati, OH

Change the Weather History Date:

Friday, October 4, 2013

  Actual Average Record
Temperature  
Mean Temperature 72 °F -  
Max Temperature 84 °F 72 °F 91 °F (1959)
Min Temperature 61 °F 48 °F 34 °F (1974)
Cooling Degree Days 6    
Growing Degree Days 22 (Base 50)    
Moisture  
Dew Point 65 °F    
Average Humidity 90    
Maximum Humidity 100    
Minimum Humidity 58    
Precipitation  
Precipitation 0.01 in - - ()
Sea Level Pressure  
Sea Level Pressure 30.06 in    
Wind  
Wind Speed 1 mph (SSW)    
Max Wind Speed 10 mph    
Max Gust Speed 17 mph    
Visibility 5 miles    
Events Fog    
Averages and records for this station are not official NWS values.
T = Trace of Precipitation, MM = Missing Value Source: NWS Daily Summary

Daily Weather History Graph

Daily Weather History Graph

Search for Another Location

Airport:

Trip Planner

Search our weather history database for the weather conditions in past years. The results will help you decide how hot, cold, wet, or windy it might be!

Date:

Astronomy

Oct. 04, 2013 Rise Set
Actual Time 7:36 AM EDT 7:15 PM EDT
Civil Twilight 7:10 AM EDT 7:41 PM EDT
Nautical Twilight 6:39 AM EDT 8:12 PM EDT
Astronomical Twilight 6:07 AM EDT 8:43 PM EDT
Moon 7:11 AM EDT (10/4) 6:57 PM EDT (10/4)
Length of Visible Light 12h 31m
Length of Day
11h 38m
Waning Crescent, 0% of the Moon is Illuminated
Oct 4
Waning Crescent
Oct 4
New
Oct 11
First Quarter
Oct 18
Full
Oct 26
Last Quarter

Hourly Weather History & Observations

Time (EDT) Temp. Heat Index Dew Point Humidity Pressure Visibility Wind Dir Wind Speed Gust Speed Precip Events Conditions
12:53 AM 66.0 °F - 66.0 °F 100% 30.05 in 4.0 mi Calm Calm - N/A   Clear
1:53 AM 66.9 °F - 66.0 °F 97% 30.05 in 8.0 mi Calm Calm - 0.01 in   Clear
2:44 AM 64.4 °F - 62.6 °F 94% 30.06 in 1.2 mi Calm Calm - N/A   Clear
2:49 AM 62.6 °F - 62.6 °F 100% 30.06 in 0.2 mi Calm Calm - N/A Fog Fog
2:53 AM 63.0 °F - 63.0 °F 100% 30.05 in 0.2 mi Calm Calm - N/A Fog Fog
3:03 AM 64.4 °F - 64.4 °F 100% 30.06 in 1.0 mi Calm Calm - N/A   Mist
3:07 AM 64.4 °F - 64.4 °F 100% 30.06 in 2.5 mi Calm Calm - N/A   Partly Cloudy
3:14 AM 64.4 °F - 64.4 °F 100% 30.06 in 4.0 mi Calm Calm - N/A   Clear
3:28 AM 62.6 °F - 62.6 °F 100% 30.06 in 1.8 mi Calm Calm - N/A   Clear
3:53 AM 63.0 °F - 63.0 °F 100% 30.05 in 1.2 mi Calm Calm - N/A   Clear
3:58 AM 62.6 °F - 62.6 °F 100% 30.06 in 0.8 mi Calm Calm - N/A   Mist
4:15 AM 62.6 °F - 62.6 °F 100% 30.06 in 0.2 mi Calm Calm - N/A Fog Fog
4:53 AM 61.0 °F - 61.0 °F 100% 30.06 in 0.2 mi Calm Calm - N/A Fog Fog
5:48 AM 62.6 °F - 62.6 °F 100% 30.07 in 0.8 mi Calm Calm - N/A   Mist
5:53 AM 62.1 °F - 62.1 °F 100% 30.06 in 0.2 mi Calm Calm - N/A Fog Fog
6:32 AM 62.6 °F - 62.6 °F 100% 30.08 in 0.5 mi Calm Calm - N/A Fog Fog
6:50 AM 62.6 °F - 62.6 °F 100% 30.08 in 0.2 mi Calm Calm - N/A Fog Fog
6:53 AM 62.1 °F - 62.1 °F 100% 30.07 in 0.5 mi Calm Calm - N/A Fog Fog
7:53 AM 62.1 °F - 62.1 °F 100% 30.10 in 0.5 mi Calm Calm - N/A Fog Fog
8:24 AM 62.6 °F - 62.6 °F 100% 30.11 in 1.0 mi Calm Calm - N/A   Scattered Clouds
8:53 AM 64.0 °F - 64.0 °F 100% 30.11 in 3.0 mi Calm Calm - N/A   Partly Cloudy
9:53 AM 68.0 °F - 66.9 °F 96% 30.10 in 8.0 mi SSW 3.5 mph - N/A   Clear
10:53 AM 73.9 °F - 66.9 °F 79% 30.09 in 10.0 mi South 5.8 mph - N/A   Clear
11:53 AM 78.1 °F - 68.0 °F 71% 30.09 in 10.0 mi SSE 3.5 mph - N/A   Partly Cloudy
12:53 PM 81.0 °F 83.3 °F 66.9 °F 62% 30.09 in 10.0 mi SW 4.6 mph - N/A   Scattered Clouds
1:53 PM 82.0 °F 84.1 °F 66.0 °F 58% 30.06 in 10.0 mi SW 6.9 mph 17.3 mph N/A   Scattered Clouds
2:53 PM 81.0 °F 83.3 °F 66.9 °F 62% 30.05 in 10.0 mi SSW 8.1 mph - N/A   Partly Cloudy
3:53 PM 82.0 °F 84.5 °F 66.9 °F 60% 30.04 in 10.0 mi South 8.1 mph - N/A   Partly Cloudy
4:53 PM 82.0 °F 84.1 °F 66.0 °F 58% 30.03 in 10.0 mi South 10.4 mph - N/A   Clear
5:53 PM 81.0 °F 83.3 °F 66.9 °F 62% 30.02 in 10.0 mi South 5.8 mph - N/A   Clear
6:53 PM 77.0 °F - 66.9 °F 71% 30.03 in 10.0 mi South 3.5 mph - N/A   Clear
7:53 PM 70.0 °F - 68.0 °F 93% 30.04 in 10.0 mi Calm Calm - N/A   Clear
8:53 PM 69.1 °F - 66.9 °F 93% 30.06 in 10.0 mi Calm Calm - N/A   Clear
9:53 PM 68.0 °F - 66.0 °F 93% 30.06 in 10.0 mi Calm Calm - N/A   Clear
10:53 PM 66.9 °F - 66.0 °F 97% - 8.0 mi Calm Calm - N/A   Scattered Clouds
11:53 PM 68.0 °F - 66.0 °F 93% - 7.0 mi Calm Calm - N/A   Scattered Clouds